Location: Gombori
(14.9797°N, 2.9419°W)
Time: 13:53:36
(UTC+00:00)

Cosmos 2150 Rocket - Visible Passes

Search period start: 28 November 2021 00:00
Search period end: 08 December 2021 00:00
Orbit: 750 x 807 km, 74.0° (Epoch: 28 November)

Date Brightness Start Highest point End Pass type
(mag) Time Alt. Az. Time Alt. Az. Time Alt. Az.
05 Dec6.719:26:50SSE19:26:50SSE19:13:51Nvisible
06 Dec 5.0 18:42:34 10° NNE 18:47:06 24° E 18:51:00 10° SE visible
06 Dec 6.2 20:24:51 10° NW 20:28:46 22° W 20:32:45 10° SSW visible
07 Dec 5.6 18:10:17 10° NE 18:12:42 13° ENE 18:15:08 10° E visible
07 Dec 5.2 19:50:01 10° NNW 19:54:53 39° W 19:59:49 10° S visible
